Weather History for Alexandria, LA

Change the Weather History Date:

Friday, May 10, 2013

  Actual Average Record
Temperature  
Mean Temperature 70 °F 73 °F  
Max Temperature 76 °F 84 °F 94 °F (1927)
Min Temperature 64 °F 62 °F 45 °F (1906)
Cooling Degree Days 5 8  
Month to date cooling degree days 24 71  
Year to date cooling degree days 151 230  
Growing Degree Days 20 (Base 50)    
Moisture  
Dew Point 66 °F    
Average Humidity 87    
Maximum Humidity 100    
Minimum Humidity 73    
Precipitation  
Precipitation 0.80 in 0.13 in 1.81 in (1925)
Month to date precipitation 0.94 1.40  
Year to date precipitation 21.98 20.68  
Sea Level Pressure  
Sea Level Pressure 29.96 in    
Wind  
Wind Speed 5 mph (WNW)    
Max Wind Speed 26 mph    
Max Gust Speed 33 mph    
Visibility 7 miles    
Events Fog , Rain , Thunderstorm    
T = Trace of Precipitation, MM = Missing Value Source: NWS Daily Summary

Daily Weather History Graph

Daily Weather History Graph

Search for Another Location

Airport:

Trip Planner

Search our weather history database for the weather conditions in past years. The results will help you decide how hot, cold, wet, or windy it might be!

Date:

Astronomy

May. 10, 2013 Rise Set
Actual Time 6:17 AM CDT 7:56 PM CDT
Civil Twilight 5:51 AM CDT 8:22 PM CDT
Nautical Twilight 5:19 AM CDT 8:54 PM CDT
Astronomical Twilight 4:46 AM CDT 9:27 PM CDT
Moon 6:42 AM CDT (5/10) 8:44 PM CDT (5/10)
Length of Visible Light 14h 31m
Length of Day
13h 38m
New Moon, 0% of the Moon is Illuminated
May 10
New Moon
May 17
First Quarter
May 24
Full
May 31
Last Quarter
Jun 8
New

Hourly Weather History & Observations

Time (CDT) Temp. Dew Point Humidity Pressure Visibility Wind Dir Wind Speed Gust Speed Precip Events Conditions
12:18 AM 69.8 °F 69.8 °F 100% 29.99 in 2.0 mi NW 3.5 mph - 0.14 in Rain , Thunderstorm Heavy Thunderstorms and Rain
12:22 AM 69.8 °F 69.8 °F 100% 29.98 in 1.2 mi Variable 3.5 mph - 0.24 in Rain , Thunderstorm Heavy Thunderstorms and Rain
12:31 AM 69.8 °F 69.8 °F 100% 29.98 in 2.0 mi NW 11.5 mph - 0.32 in Rain , Thunderstorm Heavy Thunderstorms and Rain
12:38 AM 69.8 °F 69.8 °F 100% 29.98 in 2.0 mi NNW 12.7 mph 19.6 mph 0.37 in Rain , Thunderstorm Heavy Thunderstorms and Rain
12:44 AM 69.8 °F 69.8 °F 100% 30.01 in 1.8 mi West 10.4 mph 23.0 mph 0.47 in Rain , Thunderstorm Heavy Thunderstorms and Rain
12:53 AM 68.0 °F 68.0 °F 100% 30.01 in 0.5 mi NNW 15.0 mph 23.0 mph 0.89 in Fog , Rain , Thunderstorm Heavy Thunderstorms and Rain
1:01 AM 66.2 °F 66.2 °F 100% 29.97 in 1.0 mi NNW 21.9 mph 26.5 mph 0.40 in Rain , Thunderstorm Heavy Thunderstorms and Rain
1:11 AM 66.2 °F 66.2 °F 100% 29.98 in 2.0 mi NNW 10.4 mph - 0.52 in Rain , Thunderstorm Heavy Thunderstorms and Rain
1:20 AM 66.2 °F 66.2 °F 100% 29.98 in 4.0 mi NW 8.1 mph - 0.56 in Rain , Thunderstorm Heavy Thunderstorms and Rain
1:27 AM 66.2 °F 66.2 °F 100% 29.98 in 1.8 mi North 9.2 mph - 0.73 in Rain , Thunderstorm Heavy Thunderstorms and Rain
1:35 AM 66.2 °F 66.2 °F 100% 29.99 in 3.0 mi North 3.5 mph - 0.76 in Rain , Thunderstorm Heavy Rain
1:53 AM 66.9 °F 66.0 °F 97% 29.99 in 5.0 mi North 5.8 mph - 0.84 in Rain , Thunderstorm Heavy Thunderstorms and Rain
2:23 AM 66.2 °F 66.2 °F 100% 29.95 in 6.0 mi SE 6.9 mph - 0.10 in Rain Rain
3:20 AM 66.2 °F 64.4 °F 94% 29.85 in 9.0 mi SSE 20.7 mph 28.8 mph 0.04 in Rain , Thunderstorm Rain
3:53 AM 66.9 °F 64.9 °F 93% 29.90 in 10.0 mi SE 5.8 mph - 0.05 in Rain Light Rain
4:53 AM 66.0 °F 64.0 °F 93% 29.89 in 10.0 mi East 3.5 mph - 0.01 in Rain Light Rain
5:53 AM 66.0 °F 64.0 °F 93% 29.92 in 10.0 mi West 3.5 mph - 0.00 in   Clear
6:53 AM 64.9 °F 63.0 °F 93% 29.91 in 10.0 mi SE 5.8 mph - N/A   Clear
7:53 AM 66.0 °F 64.0 °F 93% 29.92 in 10.0 mi North 6.9 mph - N/A   Clear
8:53 AM 68.0 °F 64.9 °F 90% 29.99 in 10.0 mi WSW 3.5 mph - N/A   Overcast
9:51 AM 71.6 °F 64.4 °F 78% 29.98 in 10.0 mi West 6.9 mph - N/A   Scattered Clouds
9:53 AM 71.1 °F 64.9 °F 81% 29.99 in 10.0 mi WNW 5.8 mph - N/A   Partly Cloudy
10:53 AM 72.0 °F 64.0 °F 76% 29.99 in 10.0 mi Calm Calm - N/A   Overcast
11:53 AM 73.9 °F 64.0 °F 71% 30.00 in 10.0 mi Calm Calm - N/A   Overcast
12:53 PM 73.9 °F 66.0 °F 76% 30.00 in 10.0 mi South 5.8 mph - N/A   Mostly Cloudy
1:53 PM 73.0 °F 66.9 °F 81% 30.00 in 10.0 mi SSE 6.9 mph - N/A   Overcast
2:53 PM 71.1 °F 66.0 °F 84% 29.99 in 10.0 mi South 16.1 mph 20.7 mph 0.01 in Rain Light Rain
3:53 PM 70.0 °F 66.0 °F 87% 29.86 in 10.0 mi West 5.8 mph - 0.02 in   Partly Cloudy
4:26 PM 69.8 °F 66.2 °F 88% 29.87 in 10.0 mi NNW 9.2 mph - N/A   Mostly Cloudy
4:53 PM 73.0 °F 66.9 °F 81% 29.89 in 10.0 mi NNW 6.9 mph - N/A   Mostly Cloudy
5:53 PM 75.0 °F 66.0 °F 73% 29.90 in 10.0 mi West 4.6 mph - N/A   Scattered Clouds
6:53 PM 73.0 °F 66.0 °F 79% 29.90 in 10.0 mi SSE 4.6 mph - N/A   Clear
7:53 PM 71.1 °F 66.0 °F 84% 29.94 in 10.0 mi SSE 5.8 mph - N/A   Clear
8:53 PM 69.1 °F 64.9 °F 87% 29.96 in 10.0 mi South 6.9 mph - N/A   Clear
9:53 PM 66.9 °F 64.9 °F 93% 29.99 in 10.0 mi South 5.8 mph - N/A   Clear
10:53 PM 66.0 °F 64.0 °F 93% 30.00 in 10.0 mi Calm Calm - N/A   Clear
11:53 PM 66.0 °F 64.0 °F 93% 30.00 in 10.0 mi Calm Calm - N/A   Clear